| time (UTC) | temp F | wind direction | speed MPH | gust MPH | rain 1hr in | rain 24hr in | rain mn in | humidity % | barometer mb |
| 20260504141009 | 64 | 248 | 2.0 | 11.0 | 0.00 | 0.00 | 0.00 | 34 | 1013.4 |
| 20260504140502 | 63 | 88 | 3.0 | 10.0 | 0.00 | 0.00 | 0.00 | 34 | 1013.4 |
| 20260504130510 | 57 | 226 | 1.0 | 3.0 | 0.00 | 0.00 | 0.00 | 47 | 1013.9 |
| 20260504110502 | 40 | 88 | 0.0 | 0.0 | 0.00 | 0.00 | 0.00 | 74 | 1014.3 |
| 20260504100502 | 41 | 88 | 0.0 | 0.0 | 0.00 | 0.00 | 0.00 | 69 | 1014.2 |
| 20260504082003 | 43 | 88 | 0.0 | 0.0 | 0.00 | 0.00 | 0.00 | 64 | 1013.5 |
| 20260504081512 | 43 | 88 | 0.0 | 0.0 | 0.00 | 0.00 | 0.00 | 64 | 1013.5 |
| 20260504081004 | 43 | 88 | 0.0 | 0.0 | 0.00 | 0.00 | 0.00 | 64 | 1013.5 |
| 20260504080506 | 43 | 88 | 0.0 | 1.0 | 0.00 | 0.00 | 0.00 | 64 | 1013.5 |
| 20260504050504 | 42 | 65 | 0.0 | 1.0 | 0.00 | 0.00 | 0.00 | 68 | 1013.1 |
| 20260504050011 | 42 | 65 | 0.0 | 1.0 | 0.00 | 0.00 | 0.00 | 68 | 1013.1 |
| 20260504045504 | 42 | 65 | 0.0 | 1.0 | 0.00 | 0.00 | 0.00 | 68 | 1013.2 |
| 20260504045003 | 42 | 65 | 0.0 | 1.0 | 0.00 | 0.00 | 0.00 | 67 | 1013.1 |
| 20260504044513 | 42 | 65 | 0.0 | 1.0 | 0.00 | 0.00 | 0.00 | 67 | 1013.1 |
| 20260504044005 | 43 | 65 | 0.0 | 1.0 | 0.00 | 0.00 | 0.00 | 67 | 1013.1 |
| 20260504043508 | 43 | 65 | 0.0 | 1.0 | 0.00 | 0.00 | 0.00 | 66 | 1013.1 |
| 20260504043019 | 43 | 65 | 0.0 | 0.0 | 0.00 | 0.00 | 0.00 | 66 | 1013.0 |
| 20260504042507 | 43 | 65 | 0.0 | 1.0 | 0.00 | 0.00 | 0.00 | 65 | 1013.0 |
| 20260504042007 | 43 | 65 | 0.0 | 2.0 | 0.00 | 0.00 | 0.00 | 65 | 1012.9 |
| 20260504041520 | 43 | 65 | 0.0 | 2.0 | 0.00 | 0.00 | 0.00 | 65 | 1012.9 |
| 20260504041008 | 43 | 65 | 0.0 | 2.0 | 0.00 | 0.00 | 0.00 | 64 | 1012.8 |
| 20260504040508 | 43 | 15 | 0.0 | 0.0 | 0.00 | 0.00 | 0.00 | 63 | 1012.8 |
| 20260504040024 | 43 | 355 | 0.0 | 0.0 | 0.00 | 0.00 | 0.00 | 62 | 1012.8 |
| 20260504035510 | 44 | 355 | 0.0 | 0.0 | 0.00 | 0.00 | 0.00 | 61 | 1012.8 |
| 20260504035011 | 44 | 355 | 0.0 | 0.0 | 0.00 | 0.00 | 0.00 | 61 | 1012.8 |
| 20260504034510 | 44 | 355 | 0.0 | 0.0 | 0.00 | 0.00 | 0.00 | 61 | 1012.7 |
| 20260504034007 | 44 | 355 | 0.0 | 0.0 | 0.00 | 0.00 | 0.00 | 60 | 1012.7 |
| 20260504033505 | 44 | 355 | 0.0 | 0.0 | 0.00 | 0.00 | 0.00 | 60 | 1012.8 |
| 20260504033012 | 44 | 355 | 0.0 | 0.0 | 0.00 | 0.00 | 0.00 | 59 | 1012.7 |
| 20260504032508 | 45 | 355 | 0.0 | 0.0 | 0.00 | 0.00 | 0.00 | 57 | 1012.8 |
| 20260504032009 | 45 | 355 | 0.0 | 0.0 | 0.00 | 0.00 | 0.00 | 57 | 1012.9 |
| 20260504031523 | 45 | 355 | 0.0 | 0.0 | 0.00 | 0.00 | 0.00 | 56 | 1012.8 |
| 20260504031008 | 45 | 355 | 0.0 | 0.0 | 0.00 | 0.00 | 0.00 | 56 | 1012.8 |
| 20260504030509 | 46 | 355 | 0.0 | 0.0 | 0.00 | 0.00 | 0.00 | 56 | 1012.8 |
| 20260504030023 | 46 | 355 | 0.0 | 0.0 | 0.00 | 0.00 | 0.00 | 55 | 1012.8 |
| 20260504025510 | 46 | 355 | 0.0 | 0.0 | 0.00 | 0.00 | 0.00 | 54 | 1012.8 |
| 20260504025009 | 46 | 355 | 0.0 | 0.0 | 0.00 | 0.00 | 0.00 | 54 | 1012.7 |
| 20260504024525 | 47 | 355 | 0.0 | 0.0 | 0.00 | 0.00 | 0.00 | 53 | 1012.7 |
| 20260504024008 | 47 | 355 | 0.0 | 0.0 | 0.00 | 0.00 | 0.00 | 52 | 1012.7 |
| 20260504023507 | 48 | 355 | 0.0 | 0.0 | 0.00 | 0.00 | 0.00 | 52 | 1012.7 |
| 20260504023004 | 48 | 355 | 0.0 | 0.0 | 0.00 | 0.00 | 0.00 | 51 | 1012.8 |
| 20260504022506 | 48 | 355 | 0.0 | 0.0 | 0.00 | 0.00 | 0.00 | 51 | 1012.7 |
| 20260504022004 | 48 | 355 | 0.0 | 0.0 | 0.00 | 0.00 | 0.00 | 50 | 1012.8 |
| 20260504021504 | 49 | 355 | 0.0 | 0.0 | 0.00 | 0.00 | 0.00 | 50 | 1012.8 |
| 20260504021002 | 49 | 355 | 0.0 | 0.0 | 0.00 | 0.00 | 0.00 | 48 | 1012.8 |
| 20260504020503 | 49 | 355 | 0.0 | 0.0 | 0.00 | 0.00 | 0.00 | 48 | 1012.8 |
| 20260504020006 | 50 | 355 | 0.0 | 0.0 | 0.00 | 0.00 | 0.00 | 48 | 1012.7 |
| 20260504015502 | 50 | 355 | 0.0 | 0.0 | 0.00 | 0.00 | 0.00 | 48 | 1012.7 |
| 20260504015004 | 50 | 355 | 0.0 | 0.0 | 0.00 | 0.00 | 0.00 | 46 | 1012.7 |
| 20260504014504 | 51 | 355 | 0.0 | 0.0 | 0.00 | 0.00 | 0.00 | 46 | 1012.7 |
| 20260504014002 | 51 | 355 | 0.0 | 0.0 | 0.00 | 0.00 | 0.00 | 47 | 1012.4 |
| 20260504013503 | 51 | 355 | 0.0 | 0.0 | 0.00 | 0.00 | 0.00 | 47 | 1012.4 |
| 20260504013006 | 51 | 355 | 0.0 | 0.0 | 0.00 | 0.00 | 0.00 | 46 | 1012.4 |
| 20260504012503 | 52 | 355 | 0.0 | 0.0 | 0.00 | 0.00 | 0.00 | 44 | 1012.4 |
| 20260504012003 | 52 | 355 | 0.0 | 0.0 | 0.00 | 0.00 | 0.00 | 41 | 1012.3 |
| 20260504011505 | 52 | 355 | 0.0 | 0.0 | 0.00 | 0.00 | 0.00 | 40 | 1012.3 |
| 20260504011004 | 53 | 355 | 0.0 | 0.0 | 0.00 | 0.00 | 0.00 | 39 | 1012.1 |
| 20260504010505 | 53 | 355 | 0.0 | 0.0 | 0.00 | 0.00 | 0.00 | 39 | 1012.0 |
| 20260504010004 | 53 | 355 | 0.0 | 0.0 | 0.00 | 0.00 | 0.00 | 38 | 1012.0 |
| 20260504005504 | 54 | 355 | 0.0 | 0.0 | 0.00 | 0.00 | 0.00 | 38 | 1012.0 |
| 20260504005002 | 54 | 355 | 0.0 | 0.0 | 0.00 | 0.00 | 0.00 | 39 | 1012.0 |
| 20260504004505 | 54 | 355 | 0.0 | 1.0 | 0.00 | 0.00 | 0.00 | 40 | 1011.9 |
| 20260504004002 | 54 | 355 | 0.0 | 1.0 | 0.00 | 0.00 | 0.00 | 37 | 1011.8 |
| 20260504003502 | 55 | 355 | 0.0 | 1.0 | 0.00 | 0.00 | 0.00 | 37 | 1011.8 |
| 20260504003003 | 55 | 355 | 0.0 | 3.0 | 0.00 | 0.00 | 0.00 | 37 | 1011.8 |
| 20260504002503 | 55 | 355 | 1.0 | 3.0 | 0.00 | 0.00 | 0.00 | 37 | 1011.7 |
| 20260504002003 | 55 | 88 | 0.0 | 2.0 | 0.00 | 0.00 | 0.00 | 36 | 1011.6 |
| 20260504001504 | 56 | 58 | 0.0 | 2.0 | 0.00 | 0.00 | 0.00 | 36 | 1011.6 |
| 20260504001003 | 56 | 47 | 0.0 | 2.0 | 0.00 | 0.00 | 0.00 | 36 | 1011.6 |
| 20260504000504 | 56 | 60 | 0.0 | 5.0 | 0.00 | 0.00 | 0.00 | 35 | 1011.5 |
| 20260504000024 | 56 | 353 | 1.0 | 5.0 | 0.00 | 0.00 | 0.00 | 35 | 1011.4 |
| 20260503235506 | 56 | 38 | 1.0 | 7.0 | 0.00 | 0.00 | 0.00 | 36 | 1011.3 |
| 20260503235003 | 56 | 11 | 1.0 | 7.0 | 0.00 | 0.00 | 0.00 | 34 | 1011.3 |
| 20260503234508 | 57 | 37 | 2.0 | 7.0 | 0.00 | 0.00 | 0.00 | 33 | 1011.2 |
| 20260503234004 | 57 | 262 | 0.0 | 4.0 | 0.00 | 0.00 | 0.00 | 34 | 1011.3 |
| 20260503233505 | 57 | 68 | 1.0 | 7.0 | 0.00 | 0.00 | 0.00 | 33 | 1011.2 |
| 20260503233008 | 57 | 355 | 2.0 | 7.0 | 0.00 | 0.00 | 0.00 | 32 | 1011.2 |
| 20260503232504 | 57 | 103 | 1.0 | 6.0 | 0.00 | 0.00 | 0.00 | 32 | 1011.1 |
| 20260503232003 | 58 | 330 | 0.0 | 3.0 | 0.00 | 0.00 | 0.00 | 33 | 1011.1 |
| 20260503231510 | 58 | 272 | 1.0 | 4.0 | 0.00 | 0.00 | 0.00 | 31 | 1011.0 |
| 20260503231003 | 58 | 95 | 0.0 | 4.0 | 0.00 | 0.00 | 0.00 | 31 | 1010.9 |
| 20260503230503 | 58 | 253 | 0.0 | 3.0 | 0.00 | 0.00 | 0.00 | 31 | 1011.0 |
| 20260503230009 | 58 | 266 | 0.0 | 4.0 | 0.00 | 0.00 | 0.00 | 33 | 1010.8 |
| 20260503225504 | 58 | 83 | 2.0 | 4.0 | 0.00 | 0.00 | 0.00 | 30 | 1010.9 |
| 20260503225007 | 58 | 16 | 0.0 | 4.0 | 0.00 | 0.00 | 0.00 | 31 | 1010.8 |
| 20260503224510 | 58 | 229 | 1.0 | 4.0 | 0.00 | 0.00 | 0.00 | 30 | 1010.8 |
| 20260503224004 | 58 | 106 | 0.0 | 7.0 | 0.00 | 0.00 | 0.00 | 29 | 1010.7 |
| 20260503223504 | 59 | 279 | 2.0 | 7.0 | 0.00 | 0.00 | 0.00 | 28 | 1010.7 |
| 20260503223010 | 58 | 124 | 1.0 | 9.0 | 0.00 | 0.00 | 0.00 | 29 | 1010.7 |
| 20260503222504 | 58 | 295 | 2.0 | 15.0 | 0.00 | 0.00 | 0.00 | 29 | 1010.7 |
| 20260503222005 | 59 | 204 | 4.0 | 15.0 | 0.00 | 0.00 | 0.00 | 28 | 1010.8 |
| 20260503221506 | 59 | 95 | 1.0 | 7.0 | 0.00 | 0.00 | 0.00 | 30 | 1010.7 |
| 20260503221004 | 59 | 131 | 1.0 | 8.0 | 0.00 | 0.00 | 0.00 | 29 | 1010.8 |
| 20260503220504 | 58 | 330 | 3.0 | 8.0 | 0.00 | 0.00 | 0.00 | 28 | 1010.8 |
| 20260503220008 | 59 | 278 | 2.0 | 9.0 | 0.00 | 0.00 | 0.00 | 28 | 1010.8 |
| 20260503215504 | 59 | 292 | 2.0 | 9.0 | 0.00 | 0.00 | 0.00 | 28 | 1010.7 |
| 20260503215005 | 59 | 116 | 2.0 | 9.0 | 0.00 | 0.00 | 0.00 | 27 | 1010.8 |
| 20260503214511 | 60 | 22 | 2.0 | 9.0 | 0.00 | 0.00 | 0.00 | 26 | 1010.7 |
| 20260503214008 | 60 | 345 | 2.0 | 10.0 | 0.00 | 0.00 | 0.00 | 28 | 1010.8 |
| 20260503213504 | 60 | 79 | 2.0 | 11.0 | 0.00 | 0.00 | 0.00 | 27 | 1010.6 |
| 20260503213012 | 60 | 194 | 4.0 | 11.0 | 0.00 | 0.00 | 0.00 | 28 | 1010.6 |
| 20260503212504 | 60 | 56 | 2.0 | 9.0 | 0.00 | 0.00 | 0.00 | 29 | 1010.6 |
| 20260503212004 | 59 | 15 | 1.0 | 9.0 | 0.00 | 0.00 | 0.00 | 28 | 1010.6 |
| 20260503211516 | 59 | 63 | 1.0 | 9.0 | 0.00 | 0.00 | 0.00 | 28 | 1010.6 |
| 20260503211003 | 60 | 64 | 2.0 | 11.0 | 0.00 | 0.00 | 0.00 | 27 | 1010.6 |
| 20260503210505 | 60 | 158 | 4.0 | 13.0 | 0.00 | 0.00 | 0.00 | 27 | 1010.6 |
| 20260503210013 | 59 | 326 | 2.0 | 13.0 | 0.00 | 0.00 | 0.00 | 27 | 1010.7 |
| 20260503205504 | 59 | 22 | 3.0 | 9.0 | 0.00 | 0.00 | 0.00 | 28 | 1010.5 |
| 20260503205007 | 59 | 113 | 2.0 | 9.0 | 0.00 | 0.00 | 0.00 | 29 | 1010.6 |
| 20260503204510 | 59 | 76 | 3.0 | 9.0 | 0.00 | 0.00 | 0.00 | 28 | 1010.8 |
| 20260503204005 | 58 | 185 | 2.0 | 8.0 | 0.00 | 0.00 | 0.00 | 29 | 1010.8 |
| 20260503203508 | 58 | 208 | 2.0 | 9.0 | 0.00 | 0.00 | 0.00 | 28 | 1010.7 |
| 20260503203025 | 59 | 307 | 1.0 | 9.0 | 0.00 | 0.00 | 0.00 | 27 | 1010.6 |
| 20260503202506 | 60 | 350 | 2.0 | 10.0 | 0.00 | 0.00 | 0.00 | 29 | 1010.7 |
| 20260503202006 | 60 | 349 | 3.0 | 10.0 | 0.00 | 0.00 | 0.00 | 27 | 1010.6 |
| 20260503201518 | 59 | 158 | 1.0 | 7.0 | 0.00 | 0.00 | 0.00 | 30 | 1010.6 |
| 20260503201004 | 58 | 324 | 2.0 | 9.0 | 0.00 | 0.00 | 0.00 | 28 | 1010.7 |
| 20260503200509 | 59 | 228 | 2.0 | 10.0 | 0.00 | 0.00 | 0.00 | 30 | 1010.8 |
| 20260503200016 | 59 | 209 | 3.0 | 10.0 | 0.00 | 0.00 | 0.00 | 28 | 1010.9 |
| 20260503195508 | 59 | 104 | 2.0 | 10.0 | 0.00 | 0.00 | 0.00 | 28 | 1011.0 |
| 20260503195006 | 60 | 106 | 4.0 | 10.0 | 0.00 | 0.00 | 0.00 | 26 | 1011.0 |
| 20260503194518 | 61 | 33 | 2.0 | 10.0 | 0.00 | 0.00 | 0.00 | 29 | 1010.9 |
| 20260503194002 | 59 | 19 | 1.0 | 8.0 | 0.00 | 0.00 | 0.00 | 29 | 1011.0 |
| 20260503193506 | 59 | 289 | 2.0 | 7.0 | 0.00 | 0.00 | 0.00 | 29 | 1011.0 |
| 20260503193018 | 59 | 251 | 2.0 | 8.0 | 0.00 | 0.00 | 0.00 | 28 | 1011.2 |
| 20260503192503 | 59 | 208 | 3.0 | 8.0 | 0.00 | 0.00 | 0.00 | 28 | 1011.4 |
| 20260503192006 | 60 | 333 | 2.0 | 8.0 | 0.00 | 0.00 | 0.00 | 29 | 1011.4 |
| 20260503191516 | 60 | 11 | 2.0 | 8.0 | 0.00 | 0.00 | 0.00 | 29 | 1011.4 |
| 20260503191006 | 60 | 262 | 3.0 | 8.0 | 0.00 | 0.00 | 0.00 | 30 | 1011.3 |
| 20260503190511 | 58 | 221 | 2.0 | 11.0 | 0.00 | 0.00 | 0.00 | 31 | 1011.4 |
| 20260503190018 | 57 | 175 | 4.0 | 11.0 | 0.00 | 0.00 | 0.00 | 30 | 1011.3 |
| 20260503185507 | 59 | 260 | 4.0 | 10.0 | 0.00 | 0.00 | 0.00 | 29 | 1011.3 |
| 20260503185006 | 59 | 41 | 3.0 | 7.0 | 0.00 | 0.00 | 0.00 | 30 | 1011.4 |
| 20260503184517 | 60 | 138 | 2.0 | 7.0 | 0.00 | 0.00 | 0.00 | 29 | 1011.4 |
| 20260503184007 | 60 | 8 | 2.0 | 9.0 | 0.00 | 0.00 | 0.00 | 33 | 1011.5 |
| 20260503183508 | 57 | 356 | 2.0 | 10.0 | 0.00 | 0.00 | 0.00 | 32 | 1011.4 |
| 20260503183027 | 57 | 333 | 3.0 | 10.0 | 0.00 | 0.00 | 0.00 | 32 | 1011.5 |
| 20260503182510 | 58 | 287 | 2.0 | 8.0 | 0.00 | 0.00 | 0.00 | 31 | 1011.5 |
| 20260503182003 | 60 | 116 | 1.0 | 11.0 | 0.00 | 0.00 | 0.00 | 32 | 1011.5 |
| 20260503181520 | 59 | 20 | 2.0 | 11.0 | 0.00 | 0.00 | 0.00 | 30 | 1011.5 |
| 20260503181007 | 59 | 85 | 3.0 | 9.0 | 0.00 | 0.00 | 0.00 | 31 | 1011.6 |
| 20260503180508 | 57 | 276 | 3.0 | 9.0 | 0.00 | 0.00 | 0.00 | 33 | 1011.6 |
| 20260503180029 | 56 | 256 | 2.0 | 7.0 | 0.00 | 0.00 | 0.00 | 32 | 1011.7 |
| 20260503175507 | 56 | 138 | 3.0 | 10.0 | 0.00 | 0.00 | 0.00 | 36 | 1011.7 |
| 20260503175006 | 56 | 320 | 1.0 | 12.0 | 0.00 | 0.00 | 0.00 | 33 | 1011.6 |
| 20260503174520 | 56 | 16 | 4.0 | 12.0 | 0.00 | 0.00 | 0.00 | 32 | 1011.7 |
| 20260503174009 | 55 | 17 | 3.0 | 10.0 | 0.00 | 0.00 | 0.00 | 33 | 1011.9 |
| 20260503173506 | 55 | 293 | 2.0 | 10.0 | 0.00 | 0.00 | 0.00 | 37 | 1011.8 |
| 20260503173016 | 55 | 225 | 3.0 | 10.0 | 0.00 | 0.00 | 0.00 | 37 | 1011.8 |
| 20260503172504 | 53 | 329 | 2.0 | 9.0 | 0.00 | 0.00 | 0.00 | 37 | 1011.9 |
| 20260503172003 | 53 | 284 | 3.0 | 13.0 | 0.00 | 0.00 | 0.00 | 37 | 1011.9 |
| 20260503171503 | 55 | 67 | 2.0 | 13.0 | 0.00 | 0.00 | 0.00 | 37 | 1012.0 |
| 20260503171002 | 54 | 317 | 2.0 | 9.0 | 0.00 | 0.00 | 0.00 | 38 | 1012.1 |
| 20260503170502 | 55 | 175 | 2.0 | 11.0 | 0.00 | 0.00 | 0.00 | 36 | 1012.2 |
| 20260503151003 | 53 | 300 | 1.0 | 9.0 | 0.00 | 0.00 | 0.00 | 33 | 1012.3 |
| 20260503150503 | 55 | 233 | 1.0 | 9.0 | 0.00 | 0.00 | 0.00 | 34 | 1012.3 |